Location: ????
(30.1475°N, 31.1342°E)
Time: 05:30:39
(UTC+00:00)

Daily predictions for brighter satellites

Satellite Brightness Start Highest point End
(mag) Time Altitude Azimuth Time Altitude Azimuth Time Altitude Azimuth
H-2A ROCKET BODY 3.9 00:47:42 32° E 00:47:42 32° E 00:53:45 10° E
USA 234 3.9 00:48:31 10° NE 00:54:01 49° ESE 00:54:01 49° ESE
Cosmos 1833 Rocket 4.2 00:56:17 33° E 00:56:17 33° E 01:00:27 10° NE
CZ-2C R/B 4.3 01:04:19 10° NNE 01:06:27 25° NNE 01:06:27 25° NNE
Cosmos 2123 Rocket 4.4 01:07:31 10° N 01:12:42 58° NNE 01:12:42 58° NNE
Cosmos 1605 Rocket 4.0 01:24:12 76° E 01:24:12 76° E 01:30:16 10° N
Gbstr 26 Del rocket 4.0 01:24:44 78° ESE 01:24:44 78° ESE 01:30:15 10° SE
Cosmos 2056 Rocket 4.1 01:32:56 48° SE 01:33:38 52° ESE 01:38:36 10° NNE
ATLAS CENTAUR R/B 2.7 01:35:24 39° SE 01:35:52 41° ESE 01:40:25 10° NE
Cosmos 1346 Rocket 4.3 01:36:05 34° E 01:36:05 34° E 01:39:39 10° NNE
CZ-2C R/B 4.1 01:32:36 10° SE 01:37:12 34° ENE 01:41:52 10° N
ASTRO E2 4.3 01:40:22 32° E 01:40:22 32° E 01:42:36 10° E
Cosmos 1420 Rocket 4.5 01:44:00 36° SSE 01:45:58 59° ESE 01:51:07 10° NNE
METEOR-M 3.9 01:43:12 10° N 01:48:34 77° WNW 01:48:37 76° W
DELTA 2 R/B (1) 3.5 01:49:14 66° NW 01:49:28 67° NNW 01:55:03 10° ENE
IRS-P3 4.0 01:49:08 10° N 01:54:29 78° WNW 01:55:26 60° SW
Atlas Centaur 2 2.7 01:53:42 48° W 01:56:13 88° S 02:03:12 10° E
Cosmos 407 Rocket 4.2 01:53:32 10° N 01:58:46 56° ENE 02:03:59 10° SSE
Meteor 1-14 Rocket 4.2 01:58:59 10° NNW 02:04:50 67° W 02:10:32 10° S
Cosmos 1656 3.7 02:00:15 10° NNW 02:05:58 81° ENE 02:11:37 10° SSE
Tiangong 0.4 02:05:56 15° N 02:06:15 15° NNE 02:08:09 10° NE
CZ-2D R/B 3.2 02:03:42 10° N 02:07:30 73° NW 02:07:30 73° NW
ALOS 4.5 02:05:10 10° NNW 02:05:40 12° NNW 02:05:40 12° NNW
Meteor 1-29 3.0 02:09:30 10° NNE 02:12:46 70° E 02:13:25 51° SSE
SWIFT 4.2 02:14:07 17° S 02:14:07 17° S 02:16:30 10° SSE
USA 307 4.3 02:15:27 24° NNW 02:15:27 24° NNW 02:18:20 10° NNE
SL-08 R/B 3.7 02:13:40 10° SSE 02:18:12 62° ENE 02:22:48 10° N
ARIANE 5 R/B 2.8 02:14:53 10° N 02:19:37 42° WNW 02:20:32 38° W
Meteor 1-11 Rocket 4.2 02:15:53 10° N 02:21:51 69° E 02:27:43 10° SSE
H-2A R/B 3.1 02:19:01 10° NNE 02:22:38 61° E 02:26:14 10° S
Cosmos 1452 Rocket 4.5 02:21:40 10° S 02:26:41 49° ESE 02:31:45 10° NNE
Cosmos 2100 Rocket 3.9 02:25:07 10° S 02:31:16 82° W 02:37:25 10° N
Cosmos 1633 Rocket 2.9 02:27:26 10° N 02:31:46 80° W 02:36:05 10° S
Cosmos 1484 Rocket 3.6 02:33:46 10° NNW 02:37:14 30° WNW 02:37:39 29° W
USA 234 3.9 02:31:45 10° NNE 02:37:37 37° NW 02:41:23 20° W
Cosmos 2098 Rocket 2.0 02:35:21 10° NNW 02:38:12 57° W 02:41:20 10° S
Cosmos 1833 Rocket 3.7 02:38:02 23° W 02:39:18 25° WNW 02:43:52 10° N
Cosmos 1328 Rocket 4.1 02:38:04 23° SW 02:40:00 34° W 02:44:00 10° NNW
Cosmos 1666 Rocket 3.8 02:37:09 10° NNW 02:41:26 47° W 02:45:42 10° SSW
CZ-2C R/B 3.2 02:37:17 10° N 02:42:59 68° WNW 02:48:27 10° SSW
Cosmos 2016 Rocket 4.3 02:37:37 10° S 02:43:54 74° E 02:50:15 10° N
ATLAS 3B CENTAUR R/B 4.4 02:35:08 16° WSW 02:45:33 65° SSE 02:58:17 10° E
BREEZE-M DEB (TANK) 4.3 02:41:21 10° SSW 02:46:14 25° SSE 02:48:42 10° E
Meteor 1-19 Rocket 4.2 02:41:09 10° S 02:46:41 82° E 02:52:07 10° N
CZ-2C R/B 4.4 02:45:07 10° NW 02:45:48 11° NW 02:45:48 11° NW
COSMOS 2406 3.6 02:43:05 13° SW 02:47:50 43° WNW 02:53:12 10° N
Meteor 1-4 Rocket 2.4 02:45:35 10° N 02:49:13 86° W 02:52:51 10° S
Cosmos 2082 Rocket 2.2 02:43:45 10° SSW 02:49:15 57° WNW 02:54:46 10° N
Cosmos 2251 Rocket 4.5 02:46:23 10° NW 02:50:30 24° W 02:54:36 10° SSW
Envisat 3.5 02:47:49 10° N 02:52:28 37° WNW 02:57:05 10° SW
Cosmos 44 Rocket 3.6 02:52:53 12° SW 02:57:05 43° WNW 03:01:35 10° NNE
Cosmos 1515 Rocket 3.8 02:53:43 10° SSW 02:57:56 45° W 03:02:10 10° N
PSLV R/B 3.7 02:56:00 10° N 03:00:11 50° WNW 03:04:18 10° SSW
Cosmos 1536 3.1 02:56:40 10° NNW 03:00:32 45° W 03:04:23 10° SSW
FALCON 9 R/B 0.1 02:59:40 19° WNW 03:01:03 70° SSW 03:03:40 10° ESE
Cosmos 1140 Rocket 4.5 03:03:47 10° NW 03:07:52 24° W 03:11:57 10° SSW
YAOGAN 6 4.5 03:06:59 10° NW 03:08:43 13° WNW 03:09:50 12° W
Cosmos 1697 Rocket 2.7 03:04:54 10° NNW 03:10:28 61° WSW 03:16:01 10° S
Cosmos 1470 Rocket 3.8 03:08:16 10° NNW 03:12:22 43° W 03:16:29 10° SSW
Cosmos 1461 2.7 03:10:19 10° SSW 03:14:12 81° WNW 03:18:14 10° NNE
ATLAS CENTAUR R/B 3.2 03:11:26 10° W 03:14:44 19° NW 03:18:13 10° N
Cosmos 1802 Rocket 4.3 03:09:58 10° SSW 03:16:07 48° W 03:22:14 10° N
CZ-2C R/B 3.7 03:13:39 10° SW 03:17:28 21° W 03:21:21 10° NW
ASTRO E2 2.7 03:14:59 10° W 03:18:53 72° N 03:22:47 10° E
SL-24 R/B - RUBIN 2 3.6 03:15:58 10° SSW 03:20:38 89° NW 03:25:02 10° NNE
CENTAUR R/B 2.6 03:16:40 10° SW 03:21:52 49° NW 03:28:04 10° NNE
Meteor 1-18 Rocket 4.3 03:18:51 10° SSW 03:24:39 76° W 03:30:21 10° N
